www.pogodaiklimat.ru

ПОГОДА в Ильичёвске

  • Прогноз погоды в Ильичёвске
  • Монитор погоды в Ильичёвске
  • Климат города

АРХИВ ПОГОДЫ в Ильичёвске

Время (UTC), дата Ветер
(напр.,м/с)
 
Видим.   Явления Облачность Т
(С)
Тd
(С)
f
(%)
Тe
(С)
Тes
(С)
Комфортность P
(гПа)
Po
(гПа)
Тmin
(С)
Tmax
(С)
R
(мм)
S
(см)
00 1.06 Ю 1 10 км ясно +18.0 +15.9 88 +19 +19 1010.4 1010.0
12 1.06 СЗ 3 25 км 6/5 600 м
[Cb cap Ci fib]
+28.4 +17.5 52 +33 +39 очень
душно
1011.1 1011.0
18 2.06 В 5 4000 м слабый ливневой дождь 9/9 570 м
[Cb cap]
+17.7 +16.9 95 +17 +17 1011.2 1011.0 +18.5 5
06 3.06 Ю 3 6000 м слабый ливневой дождь 10/10 570 м
[Cb cap]
+17.4 +17.1 98 +17 +17 1008.8 1009.0 +17.3 9
18 3.06 ЮВ 2 10 км в посл. час ливневой дождь 9/9 600 м
[Cb cap]
+16.9 +15.3 90 +17 +17 1008.3 1008.0 +19.2 23
12 4.06 В 2 30 км 4/3 600 м
[Cu med, cong Ci fib]
+26.8 +16.9 55 +31 +41 душно 1009.5 1010.0
00 5.06 СЗ 2 10 км ясно +16.7 +13.5 81 +17 +17 1011.1 1011.0
12 5.06 Ю 2 27 км 4/4 600 м
[Cu med, cong]
+27.0 +15.4 49 +30 +39 душно 1012.2 1012.0
00 6.06 Ю 2 10 км 1/0
[Ci fib]
+18.6 +15.9 84 +20 +20 1010.4 1010.0
12 6.06 С 1 10 км гроза, ливневой дождь 9/9 600 м
[Cb cap]
+18.1 +15.1 83 +19 +21 1010.6 1011.0
00 7.06 С 4 10 км ясно +14.6 +8.6 67 +13 +13 1015.9 1016.0
00 8.06 З 2 10 км ясно +10.4 +6.8 78 +9 +9 1021.2 1021.0
00 9.06 З 1 10 км ясно +13.2 +6.8 65 +14 +14 1018.0 1018.0
12 9.06 Ю 6 30 км 4/1 600 м
[Cu hum Ci fib]
+19.7 +8.4 48 +20 +25 1016.3 1016.0
00 10.06 Ю 2 10 км ясно +14.8 +10.6 76 +15 +15 1014.8 1015.0
12 10.06 Ю 7 30 км 4/1 600 м
[Cu hum]
+20.2 +13.8 67 +22 +25 комфорт 1014.7 1015.0
00 11.06 Ю 4 10 км 4/0
[Ci fib]
+16.5 +13.3 81 +16 +16 1012.7 1013.0
12 12.06 Ю 2 15 км 9/4 600 м
[Sc Ac trans]
+21.7 +17.4 77 +26 +31 душно 1011.3 1011.0
18 12.06 штиль 0 4000 м в посл. час ливневой дождь 10/10 420 м
[Cb calv]
+18.6 +17.3 92 +19 +19 1009.5 1010.0 +25.3 0.3
06 13.06 Ю 3 3000 м в посл. час ливневой дождь {туман} 10/10 300 м
[St]
+18.9 +18.3 96 +21 +21 комфорт 1006.0 1006.0 +17.9 0.5
18 13.06 ЮВ 2 9000 м дымка 10/9 400 м
[St As op]
+19.0 +18.1 95 +21 +21 комфорт 1003.9 1004.0 +22.1 0.0
12 14.06 ЮВ 4 17 км 6/0
[Ci fib]
+23.4 +19.7 80 +30 +39 очень
душно
1000.9 1001.0
18 14.06 ЮВ 2 10 км {ливн. осадки} 8/8 570 м
[Cb cap]
+19.5 +18.5 94 +23 +23 комфорт 1000.2 1000.0 +24.2 0.0
12 15.06 Ю 5 17 км 6/4 600 м
[Cu med, cong Ac und]
+22.1 +19.5 85 +28 +31 душно 1001.7 1002.0
00 16.06 З 1 10 км ясно +18.9 +18.1 95 +21 +21 комфорт 1005.4 1005.0
12 16.06 ЮВ 2 30 км 5/5 600 м
[Cu med, cong]
+29.1 +19.8 57 +35 +43 очень
душно
1011.2 1011.0
00 17.06 штиль 0 10 км 4/0
[Ac lent]
+19.6 +17.5 88 +22 +22 комфорт 1015.8 1016.0
12 17.06 Ю 4 29 км 4/0
[Cs]
+26.2 +20.9 73 +33 +43 очень
душно
1017.7 1018.0
00 18.06 Ю 3 10 км 5/0
[Cs]
+21.1 +19.4 90 +26 +26 душно 1016.6 1017.0
12 18.06 Ю 5 28 км 6/0
[Cs]
+24.1 +20.9 82 +30 +37 очень
душно
1017.5 1018.0
00 19.06 Ю 2 10 км 3/0
[Ci fib]
+20.9 +20.0 95 +26 +26 душно 1018.2 1018.0
06 19.06 СВ 1 12 км {ливн. осадки} 8/8 570 м
[Cb calv]
+22.7 +19.9 84 +29 +31 очень
душно
1019.1 1019.0 +20.5 0.9
00 20.06 СВ 2 10 км 5/5 600 м
[Sc]
+23.4 +20.5 84 +31 +31 очень
душно
1019.1 1019.0
12 20.06 З 1 25 км 5/0 600 м
[Cs]
+31.1 +22.7 61 +41 +57 опасность
перегрева
1021.8 1022.0
00 21.06 СВ 1 10 км ясно +25.2 +21.4 79 +32 +32 очень
душно
1022.4 1022.0
12 21.06 В 1 27 км ясно +32.5 +22.7 56 +42 +60 опасность
перегрева
1022.5 1023.0
00 22.06 СВ 2 10 км ясно +26.4 +20.5 70 +33 +33 очень
душно
1021.6 1022.0
12 22.06 Ю 1 23 км ясно +33.9 +22.3 51 +43 +61 опасность
перегрева
1020.4 1020.0
00 23.06 СВ 3 10 км ясно +27.3 +21.2 69 +34 +34 очень
душно
1020.0 1020.0
12 23.06 СВ 3 20 км 3/3 600 м
[Cu med, cong]
+32.7 +24.2 61 +45 +54 опасность
перегрева
1021.3 1021.0
00 24.06 СВ 3 10 км 4/4 600 м
[Sc]
+26.3 +20.7 71 +33 +33 очень
душно
1021.0 1021.0
12 24.06 Ю 2 27 км 4/3 600 м
[Cu med, cong Ci fib]
+31.5 +19.9 50 +38 +48 очень
душно
1019.9 1020.0
00 25.06 СВ 4 10 км 4/0
[Ac trans]
+25.3 +22.0 82 +33 +33 очень
душно
1018.9 1019.0
12 25.06 ЮВ 1 28 км 1/1 600 м
[Cu hum]
+32.5 +18.4 43 +37 +53 опасность
солнечного
удара
1018.7 1019.0
00 26.06 В 2 10 км ясно +23.6 +19.5 78 +29 +29 душно 1016.5 1017.0
12 26.06 В 1 27 км 1/1 600 м
[Cu hum]
+32.7 +19.4 45 +38 +54 опасность
солнечного
удара
1015.5 1016.0

 

Местоположение метеостанции Ильичевск (Одесская область, Украина): широта 46.40 долгота 30.70 высота над уровнем моря 52 м.

В архиве по умолчанию представлена погода в Ильичёвске за последнюю неделю. Архивные данные за месяц целиком и за предыдущие месяцы, начиная с января 2011 года, Вы можете получить, выбрав интересующий диапазон дат из раскрывающегося списка и нажав кнопку "Ввод!".

Внимание! Время в таблицах - всемирное. Для получения местного времени необходимо прибавить поправку, которая в Il`ichevsk равна 2 ч.

Ветер - указаны скорость ветра в м/с - средняя за 10 мин, порывы в срок и между сроками (в фигурных скобках) и направление, откуда дует ветер: С - северный, СВ - северо-восточный, В - восточный, ЮВ - юго-восточный, Ю - южный, ЮЗ - юго-западный, З - западный, СЗ - северо-западный.
Видимость - горизонтальная дальность видимости в метрах или километрах. При видимости от 1 до 10 км при отсутствии осадков обычно наблюдается дымка, при ухудшении видимости до 1 км и менее - туман. В сухую погоду видимость может ухудшаться дымом, пылью или мглою.
Явления - указаны атмосферные явления, наблюдавшиеся в срок или в последний час перед сроком; фигурными скобками обозначены явления, наблюдавшиеся между сроками (за 1-3 часа до срока); квадратными скобками обозначены град или гололедные отложения с указанием их диаметра в мм.
Облачность - указаны через наклонную черту общая и нижняя облачность в баллах и высота нижней границы облаков в метрах; квадратными скобками обозначены формы облаков: Ci - перистые, Cs - перисто-слоистые, Cc - перисто-кучевые, Ac - высококучевые, As - высокослоистые, Sc - слоисто-кучевые, Ns - слоисто-дождевые, Cu - кучевые, Cb - кучево-дождевые. Подробнее классификацию облаков см. в Атласе облаков (PDF).
T - Температура воздуха - температура, измеренная на высоте 2 м над землей.
Td - Температура точки росы - температура, при понижении до которой содержащийся в воздухе водяной пар достигнет насыщения.
f - Относительная влажность воздуха - влажноcть воздуха, измеренная на высоте 2 м над землей.
Te - Эффективная температура - температура, которую ощущает одетый по сезону человек в тени. Характеристика душности погоды. При расчете учитывается влияние влажности воздуха и скорости ветра на теплоощущения человека.
Tes - Эффективная температура на солнце - температура, которую ощущает человек, с поправкой на солнечный нагрев. Характеристика знойности погоды. Зависит от высоты солнца над горизонтом, облачности и скорости ветра. Ночью, в пасмурную погоду, а также при ветре 12 м/с и более поправка равна нулю.
P - Атмосферное давление - приведенное к уровню моря атмосферное давление.
Po - Атмосферное давление - измеренное на уровне метеостанции атмосферное давление.
Tmin - Минимальная температура - минимум температуры воздуха на высоте 2 м над землей.
Tmax - Максимальная температура - максимум температуры воздуха на высоте 2 м над землей.
R - Количество осадков - Количество выпавших осадков, мм. При наведении курсора мыши на число - период времени, за который выпало указанное количество осадков.
S - Снежный покров - Высота снежного покрова, см. При наведении курсора мыши на число - состояние снежного покрова и степень покрытия местности в баллах.